Simultaneous Nadir Overpasses (SNOs) Predictions

Prediction of SNOs between LANDSAT-8 and NPP Satellite Orbit:

Table of predicted SNOs for the next 14.0 days since TLE Epoch: 2/8/2020
Index Date (LANDSAT-8) Time (LANDSAT-8) Lat,Lon (LANDSAT-8) SZA (LANDSAT-8 ) Date (NPP) Time (NPP) Lat,Lon (NPP) SZA (NPP ) Distance(km) Time Diff (sec)
1 02/08/2020 06:58:26 70.13, 71.87 85.30 02/08/2020 06:57:15 70.12, 71.90 85.30 1.70 71
2 02/08/2020 07:47:56 -70.02,-120.66 94.82 02/08/2020 07:47:57 -70.03,-120.65 94.81 1.40 1
3 02/08/2020 08:37:26 69.75, 46.61 84.92 02/08/2020 08:38:38 69.75, 47.07 84.89 17.82 72
4 02/10/2020 23:14:55 70.12,-172.28 84.43 02/10/2020 23:14:11 70.10,-172.32 84.43 2.12 44
5 02/11/2020 00:04:25 -70.01, -4.80 95.69 02/11/2020 00:04:53 -70.01, -4.86 95.69 2.52 28
6 02/13/2020 14:41:45 -70.88, 137.08 95.73 02/13/2020 14:40:37 -70.94, 134.80 95.56 83.20 68
7 02/13/2020 15:31:24 70.06, -56.48 83.49 02/13/2020 15:31:05 70.04, -56.45 83.47 2.60 19
8 02/13/2020 16:20:54 -69.95, 111.01 96.63 02/13/2020 16:21:47 -69.94, 111.01 96.64 0.95 53
9 02/16/2020 06:58:27 -70.13,-108.15 97.35 02/16/2020 06:57:17 -70.14,-108.15 97.33 1.43 70
10 02/16/2020 07:47:54 70.01, 59.33 82.53 02/16/2020 07:48:01 70.03, 59.33 82.55 1.42 7
11 02/16/2020 08:37:27 -69.75,-133.41 97.73 02/16/2020 08:38:39 -69.72,-132.89 97.79 19.92 72
12 02/18/2020 23:14:57 -70.09, 7.68 98.32 02/18/2020 23:14:12 -70.07, 7.71 98.33 2.63 45
13 02/19/2020 00:04:24 69.98, 175.16 81.57 02/19/2020 00:04:56 69.96, 175.19 81.54 2.10 32
14 02/21/2020 14:41:47 70.72, -43.16 81.33 02/21/2020 14:40:38 70.80, -44.98 81.49 67.22 69
15 02/21/2020 15:31:27 -70.08, 123.52 99.30 02/21/2020 15:31:08 -70.07, 123.49 99.30 1.58 19
16 02/21/2020 16:20:54 69.96, -69.00 80.59 02/21/2020 16:21:52 69.96, -69.03 80.58 1.46 58




NCC Satellite Simultaneous Nadir Overpasses (SNOs) Prediction Service
